Location: DARK SKY Beskydy - Park tmavé oblohy, www.darkskybeskydy.cz
(49.4926°N, 18.5016°E)
Time: 01:11:11
(UTC+01:00)

Tiangong - Visible Passes

Search period start: 01 December 2022 00:00
Search period end: 11 December 2022 00:00
Orbit: 385 x 393 km, 41.5° (Epoch: 30 November)

Date Brightness Start Highest point End Pass type
(mag) Time Alt. Az. Time Alt. Az. Time Alt. Az.
02 Dec 0.2 17:46:57 10° SSW 17:48:53 15° SSE 17:49:03 15° SSE visible
03 Dec 0.5 16:49:36 10° S 16:50:52 12° SSE 16:52:09 10° SE visible
03 Dec 0.5 18:24:43 10° SW 18:25:52 16° SSW 18:25:52 16° SSW visible
04 Dec 0.1 17:26:45 10° SW 17:29:00 18° S 17:30:20 14° SE visible
05 Dec 0.4 16:28:54 10° SSW 16:30:53 15° SSE 16:32:52 10° SE visible
05 Dec 0.1 18:04:48 10° SW 18:07:05 19° S 18:07:05 19° S visible
06 Dec 0.1 17:06:36 10° SW 17:08:59 19° S 17:11:21 10° SE visible
06 Dec 1.1 18:43:25 10° SW 18:43:50 12° SW 18:43:50 12° SW visible
07 Dec 0.3 17:44:52 10° SW 17:47:02 17° S 17:48:18 14° SSE visible
08 Dec 0.3 16:46:26 10° SW 16:48:46 19° S 16:51:07 10° SE visible
08 Dec 0.9 18:24:09 10° SW 18:24:58 11° SSW 18:25:08 11° SSW visible
09 Dec 0.7 17:24:58 10° SW 17:26:43 14° SSW 17:28:27 10° SSE visible
10 Dec 0.7 16:26:16 10° SW 16:28:23 17° S 16:30:31 10° SSE visible
